Location: Alvediston
(51.0078°N, 2.0364°W)
Time: 15:33:31
(UTC+00:00)

Cosmos 2233 Rocket - Pass Details

Date: 27 February 2020
Orbit: 954 x 990 km, 82.9° (Epoch: 07 April)

Event Time Altitude Azimuth Distance (km) Brightness Sun altitude
Rises 18:35:57 0° 192° (SSW) 3,627 7.2 -8.8°
Reaches altitude 10° 18:38:26 10° 193° (SSW) 2,689 6.5 -9.2°
Maximum altitude 18:44:36 78° 281° (W) 992 4.2 -10.2°
Drops below altitude 10° 18:50:52 10° 8° (N) 2,731 6.3 -11.2°
Sets 18:53:25 0° 10° (N) 3,688 6.9 -11.6°
